Location: Chandolas
(44.4033°N, 4.2533°E)
Time: 23:58:00
(UTC+00:00)

Meteor 1-31 Rocket - Pass Details

Date: 15 November 2019
Orbit: 522 x 547 km, 97.6° (Epoch: 10 December)

Event Time Altitude Azimuth Distance (km) Brightness Sun altitude
Rises 04:13:48 0° 14° (NNE) 2,674 6.5 -25.8°
Reaches altitude 10° 04:15:55 10° 17° (NNE) 1,783 5.6 -25.4°
Enters shadow 04:18:40 44° 33° (NNE) 749 3.6 -24.9°
